2016-06-23 00:04:22 r, 19.70m,0000000001Hz,0000412880c,0000000.896s, 024.1C,00002191
2016-06-23 00:14:22 r, 19.63m,0000000001Hz,0000386898c,0000000.840s, 024.1C,00002191
2016-06-23 00:24:22 r, 19.54m,0000000001Hz,0000358091c,0000000.777s, 023.8C,00002191
2016-06-23 00:34:22 r, 19.45m,0000000002Hz,0000331259c,0000000.719s, 023.8C,00002191
2016-06-23 00:44:22 r, 19.38m,0000000001Hz,0000310162c,0000000.673s, 023.5C,00002191
2016-06-23 00:54:22 r, 19.32m,0000000001Hz,0000290864c,0000000.631s, 023.5C,00002191
2016-06-23 01:04:23 r, 19.25m,0000000002Hz,0000273374c,0000000.593s, 023.2C,00002191
2016-06-23 01:14:22 r, 19.19m,0000000002Hz,0000259057c,0000000.562s, 023.2C,00002191
2016-06-23 01:24:22 r, 19.15m,0000000002Hz,0000249676c,0000000.542s, 023.2C,00002191
2016-06-23 01:34:22 r, 19.12m,0000000002Hz,0000242983c,0000000.527s, 022.8C,00002191
2016-06-23 01:44:22 r, 19.09m,0000000002Hz,0000236122c,0000000.512s, 022.8C,00002191
2016-06-23 01:54:22 r, 19.06m,0000000002Hz,0000229373c,0000000.498s, 022.5C,00002191
2016-06-23 02:04:22 r, 19.03m,0000000002Hz,0000222775c,0000000.483s, 022.5C,00002191
2016-06-23 02:14:22 r, 18.98m,0000000002Hz,0000215010c,0000000.467s, 022.2C,00002191
2016-06-23 02:24:22 r, 18.96m,0000000002Hz,0000210090c,0000000.456s, 022.2C,00002191
2016-06-23 02:34:22 r, 18.94m,0000000002Hz,0000205495c,0000000.446s, 022.2C,00002191
2016-06-23 02:44:22 r, 18.92m,0000000003Hz,0000201526c,0000000.437s, 022.2C,00002191
2016-06-23 02:54:22 r, 18.89m,0000000002Hz,0000195798c,0000000.425s, 022.2C,00002191
2016-06-23 03:04:22 r, 18.86m,0000000002Hz,0000190900c,0000000.414s, 022.2C,00002191
2016-06-23 03:14:22 r, 18.80m,0000000002Hz,0000180354c,0000000.391s, 022.2C,00002191
2016-06-23 03:24:22 r, 18.70m,0000000003Hz,0000164708c,0000000.357s, 022.2C,00002191
2016-06-23 03:34:22 r, 18.51m,0000000003Hz,0000139150c,0000000.302s, 022.2C,00002191
2016-06-23 03:44:22 r, 18.21m,0000000004Hz,0000105338c,0000000.229s, 021.9C,00002191
2016-06-23 03:54:22 r, 17.74m,0000000007Hz,0000068015c,0000000.148s, 021.9C,00002191
2016-06-23 04:04:22 r, 17.11m,0000000012Hz,0000038314c,0000000.083s, 021.9C,00002191
2016-06-23 04:14:22 r, 16.20m,0000000027Hz,0000016541c,0000000.036s, 021.9C,00002191
2016-06-23 04:24:22 r, 15.01m,0000000082Hz,0000005558c,0000000.012s, 021.9C,00002191
2016-06-23 04:34:22 r, 13.62m,0000000301Hz,0000000000c,0000000.000s, 021.5C,00002191
2016-06-23 04:44:22 r, 12.18m,0000001140Hz,0000000000c,0000000.000s, 021.5C,00002191
2016-06-23 04:54:22 r, 10.77m,0000004189Hz,0000000000c,0000000.000s, 021.5C,00002191
2016-06-23 05:04:22 r, 09.45m,0000013974Hz,0000000000c,0000000.000s, 021.5C,00002191
2016-06-23 05:14:22 r, 08.35m,0000038674Hz,0000000000c,0000000.000s, 021.5C,00002191
2016-06-23 05:24:22 r, 07.49m,0000085128Hz,0000000000c,0000000.000s, 021.2C,00002191
2016-06-23 05:34:24 r, 06.85m,0000154503Hz,0000000000c,0000000.000s, 021.5C,00002191
2016-06-23 05:44:22 r, 06.37m,0000239780Hz,0000000000c,0000000.000s, 021.5C,00002191
2016-06-23 05:54:22 r, 06.02m,0000333494Hz,0000000000c,0000000.000s, 021.5C,00002191
2016-06-23 06:04:22 r, 00.00m,0000453849Hz,0000000000c,0000000.000s, 021.5C,00002191
2016-06-23 06:18:42 r, 00.00m,0000595989Hz,0000000000c,0000000.000s, 022.2C,00002191
2016-06-23 06:28:42 r, 00.00m,0000595924Hz,0000000000c,0000000.000s, 023.2C,00002191
2016-06-23 06:38:43 r, 00.00m,0000595860Hz,0000000000c,0000000.000s, 024.4C,00002191
2016-06-23 06:48:43 r, 00.00m,0000595739Hz,0000000000c,0000000.000s, 025.7C,00002191
2016-06-23 06:58:42 r, 00.00m,0000595618Hz,0000000000c,0000000.000s, 026.7C,00002191
2016-06-23 07:08:42 r, 00.00m,0000595408Hz,0000000000c,0000000.000s, 028.0C,00002191
2016-06-23 07:18:43 r, 00.00m,0000595249Hz,0000000000c,0000000.000s, 029.0C,00002191
2016-06-23 07:28:43 r, 00.00m,0000595205Hz,0000000000c,0000000.000s, 030.2C,00002191
2016-06-23 07:38:43 r, 00.00m,0000595163Hz,0000000000c,0000000.000s, 030.9C,00002191
2016-06-23 07:48:43 r, 00.00m,0000595180Hz,0000000000c,0000000.000s, 031.9C,00002191
2016-06-23 07:58:42 r, 00.00m,0000594991Hz,0000000000c,0000000.000s, 032.8C,00002191
2016-06-23 08:08:43 r, 00.00m,0000594860Hz,0000000000c,0000000.000s, 033.8C,00002191
2016-06-23 08:18:42 r, 00.00m,0000594790Hz,0000000000c,0000000.000s, 034.8C,00002191
2016-06-23 08:28:43 r, 00.00m,0000594683Hz,0000000000c,0000000.000s, 035.4C,00002191
2016-06-23 08:38:44 r, 00.00m,0000594603Hz,0000000000c,0000000.000s, 036.4C,00002191
2016-06-23 08:48:43 r, 00.00m,0000594516Hz,0000000000c,0000000.000s, 037.3C,00002191
2016-06-23 08:58:42 r, 00.00m,0000594403Hz,0000000000c,0000000.000s, 038.6C,00002191
2016-06-23 09:08:43 r, 00.00m,0000594243Hz,0000000000c,0000000.000s, 039.6C,00002191
2016-06-23 09:18:42 r, 00.00m,0000594073Hz,0000000000c,0000000.000s, 040.9C,00002191
2016-06-23 09:28:43 r, 00.00m,0000593921Hz,0000000000c,0000000.000s, 041.5C,00002191
2016-06-23 09:38:43 r, 00.00m,0000593759Hz,0000000000c,0000000.000s, 042.2C,00002191
2016-06-23 09:48:44 r, 00.00m,0000593640Hz,0000000000c,0000000.000s, 042.8C,00002191
2016-06-23 09:58:43 r, 00.00m,0000593496Hz,0000000000c,0000000.000s, 044.1C,00002191
2016-06-23 10:08:44 r, 00.00m,0000593345Hz,0000000000c,0000000.000s, 045.1C,00002191
2016-06-23 10:18:43 r, 00.00m,0000593099Hz,0000000000c,0000000.000s, 046.7C,00002191
2016-06-23 10:28:43 r, 00.00m,0000593009Hz,0000000000c,0000000.000s, 047.7C,00002191
2016-06-23 10:38:43 r, 00.00m,0000592764Hz,0000000000c,0000000.000s, 048.9C,00002191
2016-06-23 10:48:43 r, 00.00m,0000592752Hz,0000000000c,0000000.000s, 049.3C,00002191
2016-06-23 10:58:43 r, 00.00m,0000592711Hz,0000000000c,0000000.000s, 049.6C,00002191
2016-06-23 11:08:43 r, 00.00m,0000592740Hz,0000000000c,0000000.000s, 049.3C,00002191
2016-06-23 11:18:43 r, 00.00m,0000592652Hz,0000000000c,0000000.000s, 049.6C,00002191
2016-06-23 11:28:43 r, 00.00m,0000592559Hz,0000000000c,0000000.000s, 049.9C,00002191
2016-06-23 11:38:43 r, 00.00m,0000592445Hz,0000000000c,0000000.000s, 050.2C,00002191
2016-06-23 11:48:43 r, 00.00m,0000592409Hz,0000000000c,0000000.000s, 050.2C,00002191
2016-06-23 11:58:43 r, 00.00m,0000592289Hz,0000000000c,0000000.000s, 050.9C,00002191
2016-06-23 12:08:43 r, 00.00m,0000592211Hz,0000000000c,0000000.000s, 050.9C,00002191
2016-06-23 12:21:36 r, 00.00m,0000592202Hz,0000000000c,0000000.000s, 051.2C,00002191
2016-06-23 12:28:43 r, 00.00m,0000592190Hz,0000000000c,0000000.000s, 051.2C,00002191
2016-06-23 12:38:43 r, 00.00m,0000592170Hz,0000000000c,0000000.000s, 051.2C,00002191
2016-06-23 12:48:43 r, 00.00m,0000592144Hz,0000000000c,0000000.000s, 051.5C,00002191
2016-06-23 12:58:43 r, 00.00m,0000592055Hz,0000000000c,0000000.000s, 051.2C,00002191
2016-06-23 13:11:22 r, 00.00m,0000592080Hz,0000000000c,0000000.000s, 051.8C,00002191
2016-06-23 13:18:43 r, 00.00m,0000591911Hz,0000000000c,0000000.000s, 052.2C,00002191
2016-06-23 13:28:43 r, 00.00m,0000591925Hz,0000000000c,0000000.000s, 052.2C,00002191
2016-06-23 13:38:44 r, 00.00m,0000591901Hz,0000000000c,0000000.000s, 052.2C,00002191
2016-06-23 13:48:43 r, 00.00m,0000592017Hz,0000000000c,0000000.000s, 051.8C,00002191
2016-06-23 13:58:43 r, 00.00m,0000591976Hz,0000000000c,0000000.000s, 051.8C,00002191
2016-06-23 14:08:44 r, 00.00m,0000592014Hz,0000000000c,0000000.000s, 052.5C,00002191
2016-06-23 14:18:43 r, 00.00m,0000592034Hz,0000000000c,0000000.000s, 051.8C,00002191
2016-06-23 14:28:43 r, 00.00m,0000591880Hz,0000000000c,0000000.000s, 052.5C,00002191
2016-06-23 14:38:43 r, 00.00m,0000592002Hz,0000000000c,0000000.000s, 052.8C,00002191
2016-06-23 14:48:43 r, 00.00m,0000591926Hz,0000000000c,0000000.000s, 052.8C,00002191
2016-06-23 14:58:43 r, 00.00m,0000592099Hz,0000000000c,0000000.000s, 052.2C,00002191
2016-06-23 15:08:43 r, 00.00m,0000592074Hz,0000000000c,0000000.000s, 052.2C,00002191
2016-06-23 15:18:43 r, 00.00m,0000592027Hz,0000000000c,0000000.000s, 052.5C,00002191
2016-06-23 15:28:43 r, 00.00m,0000592067Hz,0000000000c,0000000.000s, 052.5C,00002191
2016-06-23 15:38:43 r, 00.00m,0000592065Hz,0000000000c,0000000.000s, 052.2C,00002191
2016-06-23 15:50:39 r, 00.00m,0000592083Hz,0000000000c,0000000.000s, 052.2C,00002191
2016-06-23 15:58:43 r, 00.00m,0000592240Hz,0000000000c,0000000.000s, 051.2C,00002191
2016-06-23 16:08:43 r, 00.00m,0000592168Hz,0000000000c,0000000.000s, 051.5C,00002191
2016-06-23 16:18:43 r, 00.00m,0000592216Hz,0000000000c,0000000.000s, 051.5C,00002191
2016-06-23 16:28:43 r, 00.00m,0000592322Hz,0000000000c,0000000.000s, 051.2C,00002191
2016-06-23 16:38:43 r, 00.00m,0000592438Hz,0000000000c,0000000.000s, 050.6C,00002191
2016-06-23 16:48:43 r, 00.00m,0000592431Hz,0000000000c,0000000.000s, 049.9C,00002191
2016-06-23 16:58:43 r, 00.00m,0000592513Hz,0000000000c,0000000.000s, 049.6C,00002191
2016-06-23 17:08:43 r, 00.00m,0000592569Hz,0000000000c,0000000.000s, 049.3C,00002191
2016-06-23 17:18:43 r, 00.00m,0000592635Hz,0000000000c,0000000.000s, 048.6C,00002191
2016-06-23 17:28:43 r, 00.00m,0000592706Hz,0000000000c,0000000.000s, 048.3C,00002191
2016-06-23 17:38:43 r, 00.00m,0000592803Hz,0000000000c,0000000.000s, 048.0C,00002191
2016-06-23 17:48:43 r, 00.00m,0000592868Hz,0000000000c,0000000.000s, 047.3C,00002191
2016-06-23 17:58:43 r, 00.00m,0000592923Hz,0000000000c,0000000.000s, 046.7C,00002191
2016-06-23 18:08:43 r, 00.00m,0000592938Hz,0000000000c,0000000.000s, 046.4C,00002191
2016-06-23 18:18:43 r, 00.00m,0000593172Hz,0000000000c,0000000.000s, 045.1C,00002191
2016-06-23 18:28:43 r, 00.00m,0000593215Hz,0000000000c,0000000.000s, 044.8C,00002191
2016-06-23 18:38:43 r, 00.00m,0000593300Hz,0000000000c,0000000.000s, 044.1C,00002191
2016-06-23 18:48:43 r, 00.00m,0000593344Hz,0000000000c,0000000.000s, 043.8C,00002191
2016-06-23 18:58:43 r, 00.00m,0000593465Hz,0000000000c,0000000.000s, 043.5C,00002191
2016-06-23 19:08:43 r, 00.00m,0000593630Hz,0000000000c,0000000.000s, 042.8C,00002191
2016-06-23 19:18:43 r, 00.00m,0000593784Hz,0000000000c,0000000.000s, 041.2C,00002191
2016-06-23 19:28:43 r, 00.00m,0000593805Hz,0000000000c,0000000.000s, 040.9C,00002191
2016-06-23 19:38:45 r, 00.00m,0000593919Hz,0000000000c,0000000.000s, 040.2C,00002191
2016-06-23 19:48:43 r, 00.00m,0000594018Hz,0000000000c,0000000.000s, 039.9C,00002191
2016-06-23 19:58:43 r, 00.00m,0000594093Hz,0000000000c,0000000.000s, 039.6C,00002191
2016-06-23 20:08:43 r, 00.00m,0000594156Hz,0000000000c,0000000.000s, 039.0C,00002191
2016-06-23 20:18:43 r, 00.00m,0000594199Hz,0000000000c,0000000.000s, 038.6C,00002191
2016-06-23 20:28:43 r, 00.00m,0000594245Hz,0000000000c,0000000.000s, 038.0C,00002191
2016-06-23 20:38:43 r, 00.00m,0000594327Hz,0000000000c,0000000.000s, 037.3C,00002191
2016-06-23 20:48:43 r, 00.00m,0000507977Hz,0000000000c,0000000.000s, 037.0C,00002191
2016-06-23 20:58:43 r, 00.00m,0000409017Hz,0000000000c,0000000.000s, 036.4C,00002191
2016-06-23 21:08:45 r, 06.10m,0000309243Hz,0000000000c,0000000.000s, 035.4C,00002191
2016-06-23 21:18:43 r, 06.45m,0000221885Hz,0000000000c,0000000.000s, 034.1C,00002191
2016-06-23 21:28:43 r, 06.95m,0000140804Hz,0000000000c,0000000.000s, 033.1C,00002191
2016-06-23 21:38:43 r, 07.64m,0000074604Hz,0000000000c,0000000.000s, 032.2C,00002191
2016-06-23 21:48:43 r, 08.54m,0000032378Hz,0000000000c,0000000.000s, 031.5C,00002191
2016-06-23 21:58:43 r, 09.71m,0000011052Hz,0000000000c,0000000.000s, 030.9C,00002191
2016-06-23 22:08:43 r, 11.12m,0000002992Hz,0000000000c,0000000.000s, 030.2C,00002191
2016-06-23 22:18:43 r, 12.55m,0000000805Hz,0000000000c,0000000.000s, 030.2C,00002191
2016-06-23 22:28:43 r, 14.00m,0000000212Hz,0000000000c,0000000.000s, 029.9C,00002191
2016-06-23 22:38:43 r, 15.40m,0000000058Hz,0000007925c,0000000.017s, 029.3C,00002191
2016-06-23 22:48:43 r, 16.56m,0000000020Hz,0000023044c,0000000.050s, 029.0C,00002191
2016-06-23 22:58:43 r, 17.49m,0000000008Hz,0000054723c,0000000.119s, 028.6C,00002191
2016-06-23 23:08:43 r, 18.28m,0000000004Hz,0000112422c,0000000.244s, 028.3C,00002191
2016-06-23 23:18:45 r, 19.00m,0000000002Hz,0000217817c,0000000.473s, 028.3C,00002191
2016-06-23 23:28:43 r, 19.57m,0000000001Hz,0000367572c,0000000.798s, 028.0C,00002191
2016-06-23 23:38:43 r, 19.98m,0000000000Hz,0000533618c,0000001.158s, 027.7C,00002191
2016-06-23 23:48:43 r, 20.19m,0000000001Hz,0000651842c,0000001.415s, 027.7C,00002191
2016-06-23 23:58:43 r, 20.29m,0000000001Hz,0000715891c,0000001.554s, 027.7C,00002191
